Weather in Trud

Russia / Kemerovo Oblast     54°51′43″N   85°55′16″E
temp.,
°C
wind,
m/s
gust,
m/s
humid.,
%
clouds,
%
prec.,
mm/h
press.,
hPa
HPBL,
m
19 may, wed
wed1901:00+10ne3585100 0.1 1006115
04:00+10n3587100 0.0 1005153
07:00+9nne5891100 0.9 1005434
10:00+9nne5886100 1.3 1006534
13:00+13nne5854100 1.3 10061784
16:00+15nne673699 0.0 10062359
19:00+12nne674646 0.0 10071881
22:00+8n61146100 0.0 1010524
20 may, thu
thu2001:00+6n51045100 0.0 1011544
04:00+4n51055100 0.0 1010353
07:00+4n59563 0.0 1012367
10:00+7n674092 0.0 10122179
13:00+8nnw6641100 0.1 10132343
16:00+8n6738100 0.6 10142563
19:00+7n674671 0.8 10161654
22:00+3nw366360 0.3 1019141
21 may, fri
fri2101:00+1nnw3107991 0.3 1020245
04:00+1nnw4695100 0.0 1021344
07:00+2nw239486 0.0 1023294
10:00+6n346775 0.0 1025983
13:00+11nne344697 0.1 10241856
16:00+13wnw333498 0.0 10232275
19:00+13nw3438100 0.0 10242146
22:00+8nw3356100 0.0 102631
22 may, sat
sat2201:00+6wnw2258100 0.0 102827
04:00+6wsw2261100 0.0 102830
07:00+7sw2662100 0.0 1029177
10:00+12wsw354799 0.0 1028862
13:00+14w4637100 0.0 10272206
16:00+14wnw564091 0.0 10261970
19:00+12nw565240 0.0 1027793
22:00+10wsw2556100 0.0 1027176
23 may, sun
sun2301:00+10sw365585 0.0 1027182
04:00+9ssw3758100 0.0 1027220
07:00+10ssw3757100 0.0 1027230
10:00+12sw575198 0.0 1027392
13:00+18sw564377 0.0 10251000
16:00+21sw45425 0.0 10241626
19:00+20ssw56505 0.0 1022652
22:00+14ssw49724 0.0 1022143